SCOUT X-4 DEB, 976

Orbit data source: Space-Track

SCOUT X-4 DEB, 976 is space debris in LEO originally from a launch on Sat, 10 Oct 1964 UTC launched from the Air Force Western Test Range (AFWTR). Debris objects in space refer to the collection of defunct objects orbiting the Earth. Examples of debris include non-operational satellites, rocket bodies, and fragments generated from explosions, collisions, or faulty payload assembly.

Loading next visibility...
Identifier
976, 1964-064C
Orbit
LEO
Country
Flag of USUS
Related business
Manufacturer
APL
Mission
Spacecraft
Bus & Motor
Unknown
Mass
Unknown
Launch date (UTC)
1964-10-10 (61 years ago)
Launch vehicle
Unknown
Launch site
Air Force Western Test Range (AFWTR)
Object type
Payload
Rocket body
Debris
Shape & HBR
Unknown
Radar Cross Section
Small (<0.1 m²)

Expand to show TLE details & history
Last TLE update: 16 hours ago

TLE from 16 hours ago
0 SCOUT X-4 DEB
1 00976U 64064C   25259.02879272  .00000883  00000-0  48837-3 0  9994
2 00976  79.3122 282.3993 0115796  42.8418 318.1695 14.07699498104397
Epoch: 2025-09-16T00:41Z
TLE epoch observation values (Epoch: 2025-09-16T00:41:27.69Z)
Latitude
-0.00004°
Longitude
-83.19105°
Altitude
807.994 km
Speed
7.481 km/s
True Right ascension
18h 49m 35s
True Declination
0° 00' 00"
Sunlit
Object was in daylight at epoch
Visualization orbit readout
Latitude
Unknown
Longitude
Unknown
Altitude
Unknown
Speed
Unknown
Apparent Right ascension
Unknown
Apparent Declination
Unknown
Sunlit
N/A
Visualization observer readout
Local Sidereal Time
09:37:15
Azimuth
Unknown
Elevation
Unknown
Doppler factor
Unknown
Orbital elements
Apogee altitude
948.401 km
Perigee altitude
780.666 km
Semi-major axis
7,242.671 km
Eccentricity
0.01158
Inclination
79.3122°
RAAN
282.3993°
Arg. of periapsis
42.8418°
True anomaly
317.27493°
Mean anomaly
318.1695°
Eccentric anomaly
317.72318°
Mean motion
3.52124 °/min
Orbital period
102.24 mins
BSTAR
0.00048837
Loading maneuver chart data...
Computing Atmospheric mass density...
Loading historical data...
Loading historical data...
Loading historical data...
Loading historical data...
Loading historical data...
Loading historical data...
Loading historical data...
Other satellites on launch #64 in the year 1964 (1964-10-10 UTC)

Documentation

Showing up to 5 results
|